Time,TemperatureF,DewpointF,PressureIn,WindDirection,WindDirectionDegrees,WindSpeedMPH,WindSpeedGustMPH,Humidity,HourlyPrecipIn,Conditions,Clouds,dailyrainin,SoftwareType,DateUTC
2013-05-10 00:14:00,53.2,52.0,29.94,NW,315,0.0,0.0,96,0.00,,,0.00,weatherlink.com 1.10,2013-05-10 04:14:00,
2013-05-10 00:29:00,53.2,52.0,29.94,NW,315,0.0,0.0,96,0.00,,,0.00,weatherlink.com 1.10,2013-05-10 04:29:00,
2013-05-10 00:44:00,53.2,52.0,29.95,NW,315,0.0,0.0,96,0.00,,,0.00,weatherlink.com 1.10,2013-05-10 04:44:00,
2013-05-10 00:59:00,53.3,52.0,29.94,NW,315,0.0,0.0,96,0.00,,,0.00,weatherlink.com 1.10,2013-05-10 04:59:00,
2013-05-10 01:14:00,53.4,52.0,29.94,South,180,0.0,1.0,96,0.00,,,0.00,weatherlink.com 1.10,2013-05-10 05:14:00,
2013-05-10 01:29:00,53.4,52.0,29.94,South,180,0.0,0.0,96,0.00,,,0.00,weatherlink.com 1.10,2013-05-10 05:29:00,
2013-05-10 01:44:00,53.4,52.0,29.94,South,180,0.0,0.0,96,0.00,,,0.00,weatherlink.com 1.10,2013-05-10 05:44:00,
2013-05-10 02:00:00,53.1,52.0,29.94,South,180,0.0,0.0,96,0.00,,,0.00,weatherlink.com 1.10,2013-05-10 06:00:00,
2013-05-10 02:15:00,52.9,52.0,29.93,South,180,0.0,0.0,96,0.00,,,0.00,weatherlink.com 1.10,2013-05-10 06:15:00,
2013-05-10 02:30:00,52.9,52.0,29.94,SSE,160,0.0,1.0,96,0.00,,,0.00,weatherlink.com 1.10,2013-05-10 06:30:00,
2013-05-10 02:45:00,52.8,52.0,29.93,WSW,255,0.0,2.0,97,0.00,,,0.00,weatherlink.com 1.10,2013-05-10 06:45:00,
2013-05-10 03:00:00,52.7,52.0,29.93,WSW,255,0.0,0.0,97,0.00,,,0.00,weatherlink.com 1.10,2013-05-10 07:00:00,
2013-05-10 03:15:00,52.7,52.0,29.93,WSW,255,0.0,0.0,97,0.00,,,0.00,weatherlink.com 1.10,2013-05-10 07:15:00,
2013-05-10 03:30:00,52.4,52.0,29.93,South,186,0.0,2.0,97,0.00,,,0.00,weatherlink.com 1.10,2013-05-10 07:30:00,
2013-05-10 03:45:00,52.2,51.0,29.93,South,186,0.0,0.0,97,0.00,,,0.00,weatherlink.com 1.10,2013-05-10 07:45:00,
2013-05-10 04:00:00,51.9,51.0,29.92,WNW,297,0.0,1.0,97,0.00,,,0.00,weatherlink.com 1.10,2013-05-10 08:00:00,
2013-05-10 04:15:00,51.8,51.0,29.92,WNW,297,0.0,0.0,97,0.00,,,0.00,weatherlink.com 1.10,2013-05-10 08:15:00,
2013-05-10 04:30:00,51.8,51.0,29.92,SW,234,0.0,0.0,97,0.00,,,0.00,weatherlink.com 1.10,2013-05-10 08:30:00,
2013-05-10 04:45:00,51.9,51.0,29.92,SE,144,0.0,1.0,97,0.00,,,0.00,weatherlink.com 1.10,2013-05-10 08:45:00,
2013-05-10 05:00:00,52.0,51.0,29.91,SE,144,0.0,1.0,97,0.00,,,0.00,weatherlink.com 1.10,2013-05-10 09:00:00,
2013-05-10 05:15:00,51.9,51.0,29.91,SE,144,0.0,0.0,97,0.00,,,0.00,weatherlink.com 1.10,2013-05-10 09:15:00,
2013-05-10 05:30:00,51.6,51.0,29.91,SE,144,0.0,0.0,96,0.00,,,0.00,weatherlink.com 1.10,2013-05-10 09:30:00,
2013-05-10 05:45:00,51.6,51.0,29.91,SE,144,0.0,0.0,97,0.00,,,0.00,weatherlink.com 1.10,2013-05-10 09:45:00,
2013-05-10 06:00:00,51.4,51.0,29.91,SE,144,0.0,0.0,97,0.00,,,0.00,weatherlink.com 1.10,2013-05-10 10:00:00,
2013-05-10 06:15:00,51.4,51.0,29.91,SE,144,0.0,1.0,97,0.00,,,0.00,weatherlink.com 1.10,2013-05-10 10:15:00,
2013-05-10 06:30:00,51.4,51.0,29.91,SE,146,0.0,0.0,97,0.00,,,0.00,weatherlink.com 1.10,2013-05-10 10:30:00,
2013-05-10 06:45:00,51.5,50.0,29.91,SSW,198,0.0,1.0,96,0.00,,,0.00,weatherlink.com 1.10,2013-05-10 10:45:00,
2013-05-10 07:00:00,52.2,51.0,29.91,SSW,198,0.0,0.0,97,0.00,,,0.00,weatherlink.com 1.10,2013-05-10 11:00:00,
2013-05-10 07:15:00,52.8,52.0,29.91,South,169,0.0,1.0,97,0.00,,,0.00,weatherlink.com 1.10,2013-05-10 11:15:00,
2013-05-10 07:30:00,53.3,53.0,29.91,SW,221,0.0,1.0,97,0.00,,,0.00,weatherlink.com 1.10,2013-05-10 11:30:00,
2013-05-10 07:45:00,53.7,53.0,29.91,South,175,0.0,0.0,97,0.00,,,0.00,weatherlink.com 1.10,2013-05-10 11:45:00,
2013-05-10 08:00:00,54.4,53.0,29.90,South,175,0.0,0.0,96,0.00,,,0.00,weatherlink.com 1.10,2013-05-10 12:00:00,
2013-05-10 08:15:00,55.3,54.0,29.90,ESE,122,0.0,1.0,95,0.00,,,0.00,weatherlink.com 1.10,2013-05-10 12:15:00,
2013-05-10 08:30:00,56.4,55.0,29.90,SSW,200,0.0,2.0,93,0.00,,,0.00,weatherlink.com 1.10,2013-05-10 12:30:00,
2013-05-10 08:45:00,57.1,55.0,29.89,SW,228,0.0,3.0,91,0.00,,,0.00,weatherlink.com 1.10,2013-05-10 12:45:00,
2013-05-10 09:00:00,57.9,55.0,29.88,West,265,0.0,0.0,91,0.00,,,0.00,weatherlink.com 1.10,2013-05-10 13:00:00,
2013-05-10 09:15:00,57.7,55.0,29.88,West,265,0.0,0.0,92,0.00,,,0.00,weatherlink.com 1.10,2013-05-10 13:15:00,
2013-05-10 09:30:00,58.3,55.0,29.90,SE,142,0.0,1.0,87,0.00,,,0.00,weatherlink.com 1.10,2013-05-10 13:30:00,
2013-05-10 09:45:00,58.2,55.0,29.92,NW,308,0.0,7.0,88,0.01,,,0.01,weatherlink.com 1.10,2013-05-10 13:45:00,
2013-05-10 10:00:00,57.7,55.0,29.91,NW,309,0.0,0.0,91,0.01,,,0.01,weatherlink.com 1.10,2013-05-10 14:00:00,
2013-05-10 10:15:00,57.5,56.0,29.91,NW,309,0.0,0.0,93,0.01,,,0.01,weatherlink.com 1.10,2013-05-10 14:15:00,
2013-05-10 10:30:00,57.5,56.0,29.91,NW,309,0.0,0.0,94,0.01,,,0.01,weatherlink.com 1.10,2013-05-10 14:30:00,
2013-05-10 10:45:00,57.7,56.0,29.90,NW,309,0.0,0.0,95,0.01,,,0.02,weatherlink.com 1.10,2013-05-10 14:45:00,
2013-05-10 11:00:00,58.0,57.0,29.90,NW,309,0.0,0.0,96,0.01,,,0.02,weatherlink.com 1.10,2013-05-10 15:00:00,
2013-05-10 11:15:00,58.7,58.0,29.89,NW,309,0.0,0.0,96,0.01,,,0.02,weatherlink.com 1.10,2013-05-10 15:15:00,
2013-05-10 11:30:00,59.1,58.0,29.87,NW,309,0.0,1.0,96,0.01,,,0.02,weatherlink.com 1.10,2013-05-10 15:30:00,
2013-05-10 11:45:00,60.4,59.0,29.86,NW,306,0.0,2.0,96,0.00,,,0.02,weatherlink.com 1.10,2013-05-10 15:45:00,
2013-05-10 12:00:00,62.6,59.0,29.85,SSW,192,0.0,3.0,89,0.00,,,0.02,weatherlink.com 1.10,2013-05-10 16:00:00,
2013-05-10 12:16:00,64.7,61.0,29.84,SW,225,0.0,9.0,88,0.00,,,0.02,weatherlink.com 1.10,2013-05-10 16:16:00,
2013-05-10 12:31:00,66.5,60.0,29.84,SSE,147,1.0,6.0,80,0.00,,,0.02,weatherlink.com 1.10,2013-05-10 16:31:00,
2013-05-10 12:46:00,67.7,62.0,29.83,SW,232,2.0,6.0,81,0.00,,,0.02,weatherlink.com 1.10,2013-05-10 16:46:00,
2013-05-10 13:01:00,68.6,62.0,29.83,WNW,299,0.0,2.0,80,0.00,,,0.02,weatherlink.com 1.10,2013-05-10 17:01:00,
2013-05-10 13:16:00,68.1,62.0,29.83,West,263,0.0,3.0,80,0.00,,,0.02,weatherlink.com 1.10,2013-05-10 17:16:00,
2013-05-10 13:31:00,68.4,63.0,29.82,South,180,0.0,0.0,83,0.00,,,0.02,weatherlink.com 1.10,2013-05-10 17:31:00,
2013-05-10 13:46:00,68.5,63.0,29.82,SE,133,0.0,2.0,81,0.00,,,0.02,weatherlink.com 1.10,2013-05-10 17:46:00,
2013-05-10 14:01:00,68.1,62.0,29.82,South,173,0.0,4.0,81,0.00,,,0.02,weatherlink.com 1.10,2013-05-10 18:01:00,
2013-05-10 14:16:00,68.0,62.0,29.82,NW,326,0.0,2.0,80,0.00,,,0.02,weatherlink.com 1.10,2013-05-10 18:16:00,
2013-05-10 14:31:00,70.9,61.0,29.81,South,170,0.0,5.0,72,0.00,,,0.02,weatherlink.com 1.10,2013-05-10 18:31:00,
2013-05-10 14:46:00,72.2,62.0,29.80,NW,309,0.0,7.0,71,0.00,,,0.02,weatherlink.com 1.10,2013-05-10 18:46:00,
2013-05-10 15:01:00,74.0,63.0,29.78,North,355,0.0,4.0,68,0.00,,,0.02,weatherlink.com 1.10,2013-05-10 19:01:00,
2013-05-10 15:16:00,74.8,61.0,29.77,SW,233,6.0,6.0,62,0.00,,,0.02,weatherlink.com 1.10,2013-05-10 19:16:00,
2013-05-10 15:31:00,74.0,61.0,29.76,SE,125,1.0,6.0,65,0.00,,,0.02,weatherlink.com 1.10,2013-05-10 19:31:00,
2013-05-10 15:46:00,73.3,61.0,29.75,SSE,156,1.0,2.0,66,0.00,,,0.02,weatherlink.com 1.10,2013-05-10 19:46:00,
2013-05-10 16:01:00,70.2,63.0,29.76,South,185,0.0,4.0,77,0.02,,,0.04,weatherlink.com 1.10,2013-05-10 20:01:00,
2013-05-10 16:16:00,69.8,62.0,29.75,NNW,344,0.0,2.0,76,0.02,,,0.04,weatherlink.com 1.10,2013-05-10 20:16:00,
2013-05-10 16:31:00,68.6,63.0,29.75,SSW,194,1.0,4.0,82,0.02,,,0.04,weatherlink.com 1.10,2013-05-10 20:31:00,
2013-05-10 16:46:00,67.2,62.0,29.76,ESE,111,1.0,6.0,83,0.02,,,0.04,weatherlink.com 1.10,2013-05-10 20:46:00,
2013-05-10 17:01:00,65.0,61.0,29.75,SSW,194,0.0,7.0,87,0.02,,,0.06,weatherlink.com 1.10,2013-05-10 21:01:00,
2013-05-10 17:16:00,63.4,61.0,29.75,ESE,110,0.0,3.0,91,0.12,,,0.16,weatherlink.com 1.10,2013-05-10 21:16:00,
2013-05-10 17:31:00,63.0,61.0,29.76,East,101,0.0,8.0,92,0.12,,,0.16,weatherlink.com 1.10,2013-05-10 21:31:00,
2013-05-10 17:46:00,63.2,61.0,29.76,SSE,148,0.0,1.0,93,0.14,,,0.18,weatherlink.com 1.10,2013-05-10 21:46:00,
2013-05-10 18:01:00,63.1,61.0,29.76,SSE,148,0.0,0.0,94,0.12,,,0.18,weatherlink.com 1.10,2013-05-10 22:01:00,
2013-05-10 18:16:00,63.1,61.0,29.77,SSE,148,0.0,0.0,94,0.03,,,0.19,weatherlink.com 1.10,2013-05-10 22:16:00,
2013-05-10 18:31:00,63.0,62.0,29.76,SSE,148,0.0,0.0,95,0.03,,,0.20,weatherlink.com 1.10,2013-05-10 22:31:00,
2013-05-10 18:46:00,62.9,62.0,29.76,SSE,148,0.0,0.0,95,0.02,,,0.20,weatherlink.com 1.10,2013-05-10 22:46:00,
2013-05-10 19:01:00,62.8,61.0,29.75,West,261,0.0,2.0,95,0.02,,,0.20,weatherlink.com 1.10,2013-05-10 23:01:00,
2013-05-10 19:16:00,62.7,61.0,29.75,WSW,246,2.0,4.0,95,0.02,,,0.21,weatherlink.com 1.10,2013-05-10 23:16:00,
2013-05-10 19:31:00,61.9,60.0,29.75,SSW,203,1.0,7.0,93,0.03,,,0.23,weatherlink.com 1.10,2013-05-10 23:31:00,
2013-05-10 19:46:00,61.1,59.0,29.75,ESE,117,0.0,11.0,93,0.07,,,0.27,weatherlink.com 1.10,2013-05-10 23:46:00,
2013-05-10 20:01:00,60.5,59.0,29.75,WSW,240,2.0,5.0,93,0.08,,,0.28,weatherlink.com 1.10,2013-05-11 00:01:00,
2013-05-10 20:16:00,60.2,59.0,29.74,West,267,0.0,5.0,94,0.09,,,0.30,weatherlink.com 1.10,2013-05-11 00:16:00,
2013-05-10 20:31:00,60.0,58.0,29.74,WSW,250,3.0,5.0,94,0.10,,,0.33,weatherlink.com 1.10,2013-05-11 00:31:00,
2013-05-10 20:46:00,60.0,59.0,29.74,SW,236,5.0,6.0,95,0.07,,,0.34,weatherlink.com 1.10,2013-05-11 00:46:00,
2013-05-10 21:01:00,60.0,58.0,29.74,South,171,2.0,5.0,94,0.07,,,0.35,weatherlink.com 1.10,2013-05-11 01:01:00,
2013-05-10 21:16:00,59.9,59.0,29.75,NNW,328,0.0,2.0,95,0.06,,,0.36,weatherlink.com 1.10,2013-05-11 01:16:00,
2013-05-10 21:31:00,59.7,58.0,29.75,SSW,202,0.0,2.0,95,0.04,,,0.37,weatherlink.com 1.10,2013-05-11 01:31:00,
2013-05-10 21:46:00,59.4,58.0,29.74,WSW,246,0.0,3.0,95,0.04,,,0.38,weatherlink.com 1.10,2013-05-11 01:46:00,
2013-05-10 22:02:00,59.2,58.0,29.74,West,260,0.0,2.0,95,0.04,,,0.39,weatherlink.com 1.10,2013-05-11 02:02:00,
2013-05-10 22:17:00,59.1,58.0,29.73,South,175,0.0,3.0,95,0.03,,,0.39,weatherlink.com 1.10,2013-05-11 02:17:00,
2013-05-10 22:32:00,59.1,58.0,29.73,SE,135,0.0,2.0,96,0.03,,,0.40,weatherlink.com 1.10,2013-05-11 02:32:00,
2013-05-10 22:47:00,59.1,58.0,29.72,SE,124,0.0,3.0,96,0.03,,,0.41,weatherlink.com 1.10,2013-05-11 02:47:00,
2013-05-10 23:02:00,59.1,58.0,29.72,ESE,109,0.0,3.0,96,0.03,,,0.42,weatherlink.com 1.10,2013-05-11 03:02:00,
2013-05-10 23:17:00,59.1,58.0,29.71,ESE,120,0.0,2.0,96,0.04,,,0.43,weatherlink.com 1.10,2013-05-11 03:17:00,
2013-05-10 23:32:00,59.1,58.0,29.71,SE,127,0.0,2.0,96,0.03,,,0.43,weatherlink.com 1.10,2013-05-11 03:32:00,
2013-05-10 23:47:00,59.1,58.0,29.71,SSE,149,0.0,2.0,96,0.03,,,0.44,weatherlink.com 1.10,2013-05-11 03:47:00,